Location: Jewell
(31.5029°N, 97.1961°W)
Time: 05:41:27
(UTC+00:00)

BlueWalker 3 - Visible Passes

Search period start: 09 December 2025 00:00
Search period end: 19 December 2025 00:00
Orbit: 455 x 462 km, 53.2° (Epoch: 08 December)

Date Brightness Start Highest point End Pass type
(mag) Time Alt. Az. Time Alt. Az. Time Alt. Az.
09 Dec 2.7 00:20:56 10° NNW 00:24:07 29° NE 00:25:44 20° E visible
09 Dec 4.9 01:58:44 10° WNW 01:59:36 14° W 01:59:36 14° W visible
10 Dec 3.7 01:23:34 10° WNW 01:26:43 28° SW 01:28:00 22° SSW visible
11 Dec 3.1 00:48:31 10° WNW 00:51:55 40° SW 00:55:19 10° SSE visible
12 Dec 2.5 00:13:32 10° NW 00:17:06 57° SW 00:20:38 10° SSE visible
15 Dec 5.5 00:08:18 10° WSW 00:09:34 11° WSW 00:10:50 10° SW visible
17 Dec 4.9 12:31:12 10° SSE 12:33:40 18° SE 12:36:08 10° E visible
18 Dec 5.1 11:57:10 10° SSE 11:58:48 13° ESE 12:00:26 10° E visible
